Terminal Aerodrome Forecast
Issued by NWS Jackson, KY

Home | Current Version | Previous Version | Text Only | Print | Product List | Glossary On
Versions: 1 2 3 4 5 6 7 8 9 10 11 12 13 14 15 16
000
FTUS43 KJKL 121021 AAA
TAFLOZ
TAF AMD
KLOZ 121021Z 1210/1306 28010KT P6SM BKN060 WS020/24035KT
     FM121100 28010G17KT P6SM VCSH BKN025
     FM121200 29010G19KT 4SM -SHSN OVC015
     FM121500 30012G22KT P6SM VCSH OVC020
     FM121900 30014G23KT P6SM BKN040
     FM130000 29009KT P6SM SCT200=

USA.gov is the U.S. government's official web portal to all federal, state and local government web resources and services.